Kazan, Russia

11:29 PM MSK on December 05, 2019 (GMT +0300)
Kazan

Weather History for UWKD - October, 2019

Change the Weather History Date:

Sunday, October 27, 2019

  Actual Average Record
Temperature  
Mean Temperature 50 °F -  
Max Temperature 54 °F - - ()
Min Temperature 46 °F - - ()
Degree Days  
Heating Degree Days 15    
Moisture  
Dew Point 44 °F    
Average Humidity 79    
Maximum Humidity 93    
Minimum Humidity 70    
Precipitation  
Precipitation 0.00 in - - ()
Sea Level Pressure  
Sea Level Pressure 29.59 in    
Wind  
Wind Speed 11 mph ()    
Max Wind Speed 16 mph    
Max Gust Speed 27 mph    
Visibility 6.1 miles    
Events Rain    
T = Trace of Precipitation, MM = Missing Value Source: Averaged Metar Reports

Daily Weather History Graph

Daily Weather History Graph

Search for Another Location

Airport or City:

Astronomy

Oct. 27, 2019 Rise Set
Actual Time 6:37 AM MSK 4:15 PM MSK
Civil Twilight 5:58 AM MSK 4:54 PM MSK
Nautical Twilight 5:15 AM MSK 5:37 PM MSK
Astronomical Twilight 4:32 AM MSK 6:19 PM MSK
Moon 4:53 AM MSK (10/27) 4:29 PM MSK (10/27)
Length of Visible Light 10h 55m
Length of Day
9h 38m
Waning Crescent, 1% of the Moon is Illuminated
Oct 27
Waning Crescent
Oct 28
New
Nov 4
First Quarter
Nov 12
Full
Nov 20
Last Quarter

Hourly Weather History & Observations

Time (MSK) Temp. Windchill Dew Point Humidity Pressure Visibility Wind Dir Wind Speed Gust Speed Precip Events Conditions
12:00 AM 49 °F - 43 °F 72% 29.79 in 6 mi West 8.9 mph - -   Overcast
12:00 AM 48.2 °F - 41.0 °F 76% 29.77 in 6.2 mi West 13.4 mph 24.6 mph N/A   Mostly Cloudy
12:30 AM 48.2 °F - 41.0 °F 76% 29.74 in 6.2 mi WSW 11.2 mph 22.4 mph N/A   Mostly Cloudy
1:00 AM 48.2 °F - 41.0 °F 76% 29.77 in 6.2 mi WSW 13.4 mph - N/A   Scattered Clouds
1:30 AM 48.2 °F - 41.0 °F 76% 29.74 in 6.2 mi WSW 15.7 mph - N/A   Mostly Cloudy
2:00 AM 48.2 °F - 41.0 °F 76% 29.74 in 6.2 mi WSW 11.2 mph - N/A   Mostly Cloudy
2:30 AM 48.2 °F - 41.0 °F 76% 29.74 in 6.2 mi WSW 13.4 mph - N/A   Mostly Cloudy
3:00 AM 49 °F - 43 °F 72% 29.73 in 6 mi WSW 6.7 mph - -   Overcast
3:00 AM 48.2 °F - 41.0 °F 76% 29.71 in 6.2 mi WSW 15.7 mph - N/A   Mostly Cloudy
3:30 AM 48.2 °F - 41.0 °F 76% 29.71 in 6.2 mi WSW 13.4 mph - N/A   Mostly Cloudy
4:00 AM 48.2 °F - 41.0 °F 76% 29.68 in 6.2 mi WSW 13.4 mph - N/A   Mostly Cloudy
4:30 AM 48.2 °F - 41.0 °F 76% 29.68 in 6.2 mi WSW 11.2 mph - N/A   Mostly Cloudy
5:00 AM 48.2 °F - 41.0 °F 76% 29.68 in 6.2 mi SW 11.2 mph - N/A   Mostly Cloudy
5:30 AM 48.2 °F - 41.0 °F 76% 29.65 in 6.2 mi SW 13.4 mph - N/A   Mostly Cloudy
6:00 AM 49 °F - 42 °F 70% 29.65 in 6 mi WSW 8.9 mph - -   Overcast
6:00 AM 48.2 °F - 41.0 °F 76% 29.62 in 6.2 mi SW 11.2 mph - N/A   Scattered Clouds
6:30 AM 48.2 °F - 41.0 °F 76% 29.62 in 6.2 mi SW 11.2 mph - N/A   Scattered Clouds
7:00 AM 48.2 °F - 41.0 °F 76% 29.59 in 6.2 mi SW 11.2 mph - N/A   Scattered Clouds
7:30 AM 48.2 °F - 41.0 °F 76% 29.59 in 6.2 mi SW 11.2 mph - N/A Rain Light Rain
8:00 AM 48.2 °F - 42.8 °F 82% 29.59 in 6.2 mi SW 8.9 mph 20.1 mph N/A Rain Light Rain
8:30 AM 46.4 °F 41.2 °F 42.8 °F 87% 29.56 in 5.6 mi WSW 11.2 mph 22.4 mph N/A Rain Light Rain
9:00 AM 47 °F - 45 °F 89% 29.59 in 6 mi WSW 8.9 mph - - Rain Light Rain
9:00 AM 46.4 °F 41.2 °F 44.6 °F 93% 29.56 in 6.2 mi WSW 11.2 mph 22.4 mph N/A   Overcast
9:30 AM 48.2 °F - 44.6 °F 87% 29.56 in 6.2 mi WSW 15.7 mph 26.8 mph N/A   Overcast
10:00 AM 48.2 °F - 44.6 °F 87% 29.53 in 5.6 mi WSW 11.2 mph 22.4 mph N/A Rain Light Rain
10:30 AM 48.2 °F - 46.4 °F 93% 29.53 in 5.6 mi WSW 15.7 mph 26.8 mph N/A Rain Light Rain
11:00 AM 50.0 °F - 46.4 °F 87% 29.53 in 6.2 mi WSW 15.7 mph 26.8 mph N/A   Overcast
11:30 AM 50.0 °F - 46.4 °F 87% 29.53 in 6.2 mi WSW 15.7 mph 26.8 mph N/A   Overcast
12:00 PM 51 °F - 47 °F 83% 29.55 in 6 mi WSW 8.9 mph - -   Partly Cloudy
12:00 PM 51.8 °F - 46.4 °F 82% 29.53 in 6.2 mi WSW 15.7 mph 26.8 mph N/A   Overcast
12:30 PM 51.8 °F - 46.4 °F 82% 29.53 in 6.2 mi WSW 15.7 mph 26.8 mph N/A   Overcast
1:00 PM 53.6 °F - 46.4 °F 77% 29.50 in 6.2 mi WSW 15.7 mph 26.8 mph N/A   Overcast
1:30 PM 53.6 °F - 46.4 °F 77% 29.53 in 6.2 mi WSW 15.7 mph 26.8 mph N/A   Overcast
2:00 PM 53.6 °F - 46.4 °F 77% 29.53 in 6.2 mi West 11.2 mph 22.4 mph N/A   Overcast
2:30 PM 53.6 °F - 46.4 °F 77% 29.53 in 6.2 mi WSW 13.4 mph 24.6 mph N/A   Overcast
3:00 PM 54 °F - 47 °F 72% 29.54 in 6 mi WSW 8.9 mph - -   Partly Cloudy
3:00 PM 53.6 °F - 46.4 °F 77% 29.53 in 6.2 mi WSW 15.7 mph 26.8 mph N/A   Overcast
4:30 PM 53.6 °F - 46.4 °F 77% 29.50 in 6.2 mi West 15.7 mph 26.8 mph N/A   Overcast
5:00 PM 53.6 °F - 46.4 °F 77% 29.53 in 6.2 mi WSW 15.7 mph 26.8 mph N/A   Overcast
5:30 PM 53.6 °F - 46.4 °F 77% 29.50 in 6.2 mi WSW 15.7 mph 26.8 mph N/A   Overcast
6:00 PM 53.6 °F - 46.4 °F 77% 29.53 in 6.2 mi WSW 15.7 mph 26.8 mph N/A   Overcast
6:30 PM 51.8 °F - 46.4 °F 82% 29.53 in 6.2 mi WSW 11.2 mph 22.4 mph N/A   Overcast
7:00 PM 51.8 °F - 46.4 °F 82% 29.53 in 6.2 mi WSW 8.9 mph 20.1 mph N/A   Overcast
7:30 PM 51.8 °F - 46.4 °F 82% 29.53 in 6.2 mi WSW 11.2 mph 22.4 mph N/A   Overcast
8:00 PM 51.8 °F - 46.4 °F 82% 29.53 in 6.2 mi WSW 11.2 mph 22.4 mph N/A   Overcast
8:30 PM 51.8 °F - 46.4 °F 82% 29.53 in 6.2 mi WSW 11.2 mph 22.4 mph N/A   Overcast
9:00 PM 53 °F - 48 °F 76% 29.53 in 6 mi West 8.9 mph - -   Overcast
9:00 PM 51.8 °F - 46.4 °F 82% 29.50 in 6.2 mi WSW 11.2 mph 22.4 mph N/A   Overcast
9:30 PM 51.8 °F - 46.4 °F 82% 29.50 in 6.2 mi WSW 13.4 mph 24.6 mph N/A   Mostly Cloudy
10:00 PM 51.8 °F - 46.4 °F 82% 29.50 in 6.2 mi WSW 13.4 mph 24.6 mph N/A   Mostly Cloudy
10:30 PM 51.8 °F - 46.4 °F 82% 29.47 in 6.2 mi WSW 11.2 mph - N/A Rain Light Rain
11:00 PM 51.8 °F - 46.4 °F 82% 29.47 in 6.2 mi WSW 15.7 mph - N/A   Overcast
11:30 PM 51.8 °F - 46.4 °F 82% 29.44 in 6.2 mi WSW 13.4 mph - N/A   Overcast